Regional Weather Roundup
Issued by NWS

Home | Current Version | Previous Version | Text Only | Print | Product List | Glossary Off
Versions: 1 2 3 4 5 6 7 8 9 10 11 12 13 14 15 16 17 18 19 20 21 22 23 24 25 26 27 28 29 30 31 32 33 34 35 36 37 38 39 40 41 42 43 44 45 46 47 48 49 50

000
ASUS43 KBIS 290810
RWRND

NORTH DAKOTA REGIONAL WEATHER ROUNDUP
NATIONAL WEATHER SERVICE BISMARCK ND
300 AM CDT FRI MAY 29 2015

NOTE: "FAIR" INDICATES FEW OR NO CLOUDS BELOW 12,000 FEET WITH NO
SIGNIFICANT WEATHER AND/OR OBSTRUCTIONS TO VISIBILITY.


NDZ001>003-009>011-017-290900-
NORTHWEST NORTH DAKOTA

CITY           SKY/WX    TMP DP  RH WIND       PRES   REMARKS
WILLISTON      CLOUDY    47  35  63 N17       30.21R
MINOT          CLOUDY    49  40  71 N21G32    30.10S
MINOT AFB      CLOUDY    49  48  99 N20G26    30.11R
$$

NDZ018>021-031>035-040>046-290900-
SOUTHWEST NORTH DAKOTA

CITY           SKY/WX    TMP DP  RH WIND       PRES   REMARKS
BISMARCK       CLOUDY    54  49  83 N17G28    30.02R
DICKINSON      CLOUDY    49  45  86 N16G24    30.09R
GARRISON         N/A     50  42  74 N15G32    30.07R
HETTINGER ARPT CLOUDY    51  47  86 N22G31    30.06R
$$

NDZ004>008-012>016-024-026-027-054-290900-
NORTHEAST NORTH DAKOTA

CITY           SKY/WX    TMP DP  RH WIND       PRES   REMARKS
GRAND FORKS    CLOUDY    52  49  89 N23G32    29.93R
GRND FRKS AFB  CLOUDY    51  47  86 N24G35    29.95R
DEVILS LAKE    CLOUDY    52  43  71 N23G33    30.00R
$$

NDZ022-023-025-028>030-036>039-047>053-290900-
SOUTHEAST NORTH DAKOTA

CITY           SKY/WX    TMP DP  RH WIND       PRES   REMARKS
FARGO          LGT RAIN  63  61  93 CALM      29.85S
JAMESTOWN      CLOUDY    59  55  87 N22       29.91R
$$



USA.gov is the U.S. government's official web portal to all federal, state and local government web resources and services.